x

St. Bees Head (03210) Weather Station

2:00am - Wed 1st Apr 2015 All times are BST. 1 hours from GMT.

  • Wind
    31mph, 43mph gusts
  • Air Temp 40°f
  • Sea Pressure 1015mb
  • St. Bees Head
  • St. Bees Head

More Historic Weather Station data

Upgrade to MSW Pro to gain access to the past 30 days of data for over 8000 Wavebouys and Weather Stations around the globe.

Join Pro

Comparision Forecast

View Surf forecast
   
Wed 04/01 2:00am 31 43 mph 1015mb 40f
1:00am 26
mph
1015mb 38f
12:00am 31 54 mph 1014mb 39f
Tue 03/31 11:00pm 38 59 mph 1013mb 38f
10:00pm 41 56 mph 1012mb 39f
9:00pm 33 70 mph 1011mb 38f
8:00pm 47 56 mph 1010mb 40f
7:00pm 41 61 mph 1009mb 39f
6:00pm 46 55 mph 1008mb 40f
5:00pm 43 62 mph 1008mb 37f
4:00pm 43 64 mph 1007mb 40f
3:00pm 46 61 mph 1005mb 42f
2:00pm 47 61 mph 1004mb 42f
1:00pm 41 55 mph 1004mb 42f
12:00pm 51 66 mph 1003mb 38f
11:00am 38 59 mph 1002mb 41f
10:00am 38 49 mph 1002mb 42f
9:00am 31 43 mph 1001mb 42f
8:00am 31 47 mph 1000mb 41f
7:00am 37 53 mph 997mb 41f
6:00am 36 54 mph 994mb 42f
5:00am 40 60 mph 992mb 42f
4:00am 45 70 mph 989mb 43f
3:00am 51 67 mph 987mb 45f
2:00am 41 56 mph 986mb 45f
1:00am 40 54 mph 986mb 45f
12:00am 36 57 mph 986mb 46f
Mon 03/30 11:00pm 31 44 mph 986mb 47f
10:00pm 28 37 mph 987mb 46f
9:00pm 28 37 mph 989mb 46f
8:00pm 22 32 mph 991mb 45f
7:00pm 22 43 mph 994mb 44f
6:00pm 30 38 mph 996mb 42f
5:00pm 25 36 mph 998mb 41f
4:00pm 24 31 mph 1002mb 41f
3:00pm 21 39 mph 1004mb 41f
2:00pm 24 33 mph 1005mb 43f
1:00pm 19
mph
1005mb 45f
12:00pm 19 32 mph 1006mb 44f
11:00am 24 31 mph 1006mb 42f
10:00am 21 32 mph 1006mb 42f
9:00am 25 32 mph 1005mb 40f
8:00am 25 43 mph 1004mb 40f
7:00am 26 34 mph 1004mb 40f
6:00am 26 44 mph 1002mb 39f
5:00am 31 51 mph 1001mb 38f
4:00am 24 54 mph 1000mb 38f
3:00am 36 48 mph 999mb 40f
2:00am 33 47 mph 998mb 40f
1:00am 28 36 mph 998mb 40f
12:00am 29 37 mph 997mb 40f
Sun 03/29 11:00pm 28 52 mph 996mb 39f
10:00pm 29 36 mph 995mb 41f
9:00pm 24 36 mph 995mb 41f
8:00pm 29 46 mph 994mb 43f
7:00pm 29 41 mph 993mb 43f
6:00pm 23 46 mph 992mb 44f
5:00pm 25 40 mph 991mb 43f
4:00pm 22 31 mph 991mb 45f
3:00pm 19 30 mph 991mb 44f
2:00pm 25 33 mph 991mb 42f
1:00pm 19
mph
990mb 41f
12:00pm 16
mph
989mb 41f
11:00am 16
mph
989mb 41f
10:00am 18
mph
990mb 42f
9:00am 17 29 mph 991mb 43f
8:00am 21 34 mph 992mb 43f
7:00am 24 32 mph 993mb 43f
6:00am 19 34 mph 994mb 44f
5:00am 21 29 mph 995mb 44f
4:00am 19 33 mph 996mb 44f
3:00am 26 40 mph 997mb 44f
2:00am 25 36 mph 997mb 44f
1:00am 26 43 mph 996mb 45f
12:00am 29 49 mph 996mb 45f
Sat 03/28 11:00pm 19 31 mph 996mb 44f
10:00pm 15
mph
997mb 44f
9:00pm 13
mph
998mb 43f
8:00pm 10 30 mph 999mb 44f
7:00pm 19
mph
1000mb 46f
6:00pm 16
mph
999mb 46f
5:00pm 21 30 mph 999mb 47f
4:00pm 24 36 mph 999mb 50f
3:00pm 14
mph
1000mb 49f
2:00pm 19 30 mph 999mb 48f
1:00pm 21 29 mph 999mb 47f
12:00pm 19 30 mph 999mb 47f
11:00am 21 36 mph 999mb 46f
10:00am 24 34 mph 999mb 46f
9:00am 23 31 mph 1000mb 46f
8:00am 21 33 mph 1002mb 45f
7:00am 25 38 mph 1003mb 44f
6:00am 28 37 mph 1005mb 43f
5:00am 26 36 mph 1006mb 42f
4:00am 24 30 mph 1008mb 42f
3:00am 18
mph
1011mb 43f